Hourly Data Report for June 17, 2021

LONDON CS
ONTARIO
Current Station Operator: ECCC - MSC

43°02'00.000" N
81°09'00.000" W
278.00 m
6144478
71622
WSN

Download Data

Hourly Data (June 2021)
Hourly Data Report for June 17, 2021
TIME
LST
Temp Definition
°C
Dew Point Definition
°C
Rel Hum Definition
%
Precip. Amount Definition
mm

Wind Dir Definition
10's deg

Wind Spd Definition
km/h
Visibility Definition
km
Stn Press Definition
kPa
Hmdx Definition


Wind Chill Definition


Weather Definition


00:00 9.0 2.9 66 0.0       98.46     LegendNANA
01:00 8.5 4.5 76 0.0       98.45     LegendNANA
02:00 8.3 3.9 74 0.0       98.47     LegendNANA
03:00 5.8 5.4 98 0.0       98.41     LegendNANA
04:00 5.8 5.7 100 0.0       98.43     LegendNANA
05:00 6.8 5.2 90 0.0       98.49     LegendNANA
06:00 8.2 5.5 83 0.0       98.50     LegendNANA
07:00 13.0 5.9 62 0.0       98.49     LegendNANA
08:00 16.9 3.7 41 0.0       98.51     LegendNANA
09:00 19.2 2.2 32 0.0       98.52     LegendNANA
10:00 20.4 2.8 31 0.0       98.52     LegendNANA
11:00 21.8 7.8 41 0.0       98.49     LegendNANA
12:00 21.8 8.0 41 0.0       98.45     LegendNANA
13:00 22.7 9.8 44 0.0       98.40     LegendNANA
14:00 23.1 11.0 46 0.0       98.39 25   LegendNANA
15:00 23.6 12.0 48 0.0       98.33 26   LegendNANA
16:00 23.9 11.2 45 0.0       98.27 26   LegendNANA
17:00 23.5 9.9 42 0.0       98.22 25   LegendNANA
18:00 23.1 9.8 43 0.0       98.18     LegendNANA
19:00 21.9 9.5 45 0.0       98.17     LegendNANA
20:00 20.5 9.5 49 0.0       98.13     LegendNANA
21:00 18.3 9.9 58 0.0       98.09     LegendNANA
22:00 16.7 10.5 67 0.0       98.15     LegendNANA
23:00 15.8 11.0 73 0.0       98.11     LegendNANA

Notes on Data Quality.

Legend

  • E = Estimated
  • M = Missing
  • NA = Not Available*
  • [empty] = Indicates an unobserved value
Date modified: